Location: Sungai Laei
(2.6000°N, 113.7167°E)
Time: 14:00:40
(UTC+00:00)

ARIANE 5 R/B - Pass Details

Date: 22 May 2022
Orbit: 320 x 33720 km, 4.0° (Epoch: 06 July)

Event Time Altitude Azimuth Distance (km) Brightness Sun altitude
Rises 11:35:54 0° 269° (W) 13,567 10.1 -16.3°
Reaches altitude 10° 11:45:38 10° 268° (W) 14,938 10.0 -18.6°
Drops below altitude 10° 17:51:49 10° 265° (W) 33,748 10.5 -58.1°
Enters shadow 19:50:54 - 265° (W) 17,021 8.8 -33.8°
Exits shadow 20:28:08 29° 263° (W) 5,488 6.2 -25.4°
Maximum altitude 20:38:38 83° 166° (SSE) 1,479 3.8 -23.0°
Sets 20:44:24 0° 89° (E) 2,793 6.6 -21.7°
